Starlink 5533

operational
NORAD ID: 56355 Int'l Des: 2023-058 Owner: SPXS Country: US Constellation: starlink
LEOCIRCULARRETROGRADESSO

About Starlink 5533

Description loading...

Live Position

Loading 3D Globe...

Upcoming Passes

Altitude History

Altitude vs Time

uPlot chart will show altitude changes over time

Two-Line Element Set

1 56355U 23058AQ 25338.57338199 -.00000305 00000-0 -19188-4 0 9999
2 56355 97.6032 337.1386 0001894 184.5359 175.5849 15.01263584143867
Epoch: Dec 4, 2025 • Age: 17 hours

Current Status

Altitude 564.3 km
Velocity 7.58 km/s
Sub-Earth Point 19.22°N, 10.9°W
Launch Date Apr 27, 2023
Age 2.6 years
Type internet

Technical Details

Classification Payload
Mass 300.00 kg
Dry Mass 260.00 kg
Total Mass 300.00 kg
Length 0.20 m
Diameter 2.80 m
Span 9.00 m
Shape Box + pan
Manufacturer SPXS
Bus Type Starlink
Phase Status In Orbit
Owner/State SPXS/US

Large Constellations

Loading constellations...